Tracking 29892 objects as of 21-Nov-2024
HD Live streaming from Space Station
objects crossing your sky now

OBJECT D

Track OBJECT D now!
10-day predictions


NORAD ID: 44313
Int'l Code: 2019-032D
Perigee: 474.1 km
Apogee: 489.3 km
Inclination: 45.0 °
Period: 94.1 minutes
Semi major axis: 6852 km
RCS: Unknown
Launch date: June 5, 2019
Source: People's Republic of China (PRC)
Launch site: Yellow Sea Launch Area, China (YSLA)
Your satellite tracking list
Your tracking list is empty




NASA's NSSDC Master Catalog

Two Line Element Set (TLE):
1 44313U 19032D   24326.06030685  .00037029  00000-0  12362-2 0  9992
2 44313  44.9958 205.4316 0011110 234.8692 125.1151 15.30431385300805
Source of the keplerian elements: AFSPC